Location: Hopewell Observatory
(38.8698°N, 77.6988°W)
Time: 07:51:19
(UTC-04:00)

Amateur Radio Satellites - All Passes

Search period start: 21 August 2017 07:21
Search period end: 22 August 2017 07:21
Location: Hopewell Observatory, 38.8698°N, 77.6988°W

Satellite Date Start Highest point End Downlink Frequencies (MHz)
Time Altitude Azimuth
XW-2F 21 Aug 07:31:49 07:35:38 71° 284° (WNW) 07:39:27 145.980 - 146.000
DOVE 4 21 Aug 07:46:40 07:49:47 19° 295° (WNW) 07:52:47 437.250
NO-84 21 Aug 07:49:21 07:51:13 15° 32° (NNE) 07:53:10 435.350 FM
XW-2A 21 Aug 07:54:44 07:56:33 14° 94° (E) 07:58:20 145.665 - 145.685
KAITUO 1B 21 Aug 07:56:46 08:00:22 42° 286° (WNW) 08:03:58 145.475/437.950
CUTE 1.7 + AOD 2 21 Aug 07:58:30 08:02:31 38° 98° (E) 08:06:30 437.475
STRAND 1 21 Aug 08:00:35 08:05:41 74° 257° (WSW) 08:10:49 437.568
HO-68 21 Aug 08:02:33 08:09:25 47° 100° (E) 08:16:14 435.675
PCSat 21 Aug 08:05:01 08:10:18 50° 57° (ENE) 08:15:32 145.827
UWE-3 21 Aug 08:05:49 08:07:51 13° 92° (E) 08:09:54 435.000/436.395/437.385
SO-50 21 Aug 08:06:51 08:11:13 43° 54° (NE) 08:15:36 436.795
CUBEBUG 2 21 Aug 08:12:18 08:15:55 27° 96° (E) 08:19:35 437.445
Tancredo 1 21 Aug 08:20:40 08:21:58 12° 130° (SE) 08:23:16 437.200
LilacSat-2 21 Aug 08:20:59 08:23:29 17° 292° (WNW) 08:25:59 437.200
XW-2D 21 Aug 08:25:01 08:27:18 15° 293° (WNW) 08:29:36 145.860 - 145.880
NUDT-PHONESAT 21 Aug 08:29:57 08:32:31 18° 291° (WNW) 08:35:05 437.300
XW-2B 21 Aug 08:36:46 08:38:17 12° 294° (WNW) 08:39:48 145.730 - 145.750
ZACube-1 21 Aug 08:44:00 08:47:10 20° 94° (E) 08:50:21 437.345
SEEDS 21 Aug 08:45:37 08:49:54 84° 103° (ESE) 08:54:09 437.485
CUTE-I 21 Aug 08:49:53 08:53:52 22° 295° (WNW) 08:57:49 437.470
FO-29 21 Aug 08:52:01 08:58:50 38° 68° (ENE) 09:05:04 435.910
AO-73 21 Aug 09:04:30 09:08:18 29° 97° (E) 09:12:08 145.935
TIGRISAT 21 Aug 09:18:37 09:21:15 16° 66° (ENE) 09:23:53 435.000
NO-84 21 Aug 09:25:44 09:28:48 54° 227° (SW) 09:32:06 435.350 FM
XW-2A 21 Aug 09:26:21 09:29:18 28° 288° (WNW) 09:32:15 145.665 - 145.685
AAUSAT CUBESAT 2 21 Aug 09:30:15 09:34:25 66° 284° (WNW) 09:38:32 437.432
ISS 21 Aug 09:32:53 09:35:20 20° 131° (SE) 09:37:47 437.550
CUTE 1.7 + AOD 2 21 Aug 09:35:09 09:38:02 18° 293° (WNW) 09:40:55 437.475
UWE-3 21 Aug 09:40:25 09:44:32 49° 286° (WNW) 09:48:43 435.000/436.395/437.385
nSIGHT-1 21 Aug 09:40:30 09:43:14 25° 133° (SE) 09:45:58 .
SO-50 21 Aug 09:48:05 09:51:21 20° 249° (WSW) 09:54:39 436.795
Oscar 11 21 Aug 09:48:56 09:53:18 70° 101° (ESE) 09:57:38 .
CUBEBUG 2 21 Aug 09:49:04 09:52:24 23° 291° (WNW) 09:55:47 437.445
PCSat 21 Aug 09:49:18 09:53:18 21° 254° (WSW) 09:57:16 145.827
HO-68 21 Aug 09:50:41 09:56:52 33° 297° (WNW) 10:03:03 435.675
Tancredo 1 21 Aug 09:53:59 09:56:50 49° 325° (NW) 09:59:41 437.200
O/OREOS (USA 219) 21 Aug 10:07:31 10:11:59 86° 295° (WNW) 10:16:28 437.305
Max Valier Satellite 21 Aug 10:15:37 10:18:31 22° 95° (E) 10:21:26 145.860
PRISM 21 Aug 10:17:06 10:21:09 55° 74° (ENE) 10:25:15 437.425
UNISAT 6 21 Aug 10:18:12 10:22:33 83° 77° (ENE) 10:26:51 437.425
ZACube-1 21 Aug 10:19:37 10:23:28 33° 288° (WNW) 10:27:24 437.345
DELFI C3 21 Aug 10:32:43 10:36:36 49° 99° (E) 10:40:26 145.870
FO-29 21 Aug 10:36:33 10:43:42 42° 262° (W) 10:50:18 435.910
AIST 2D 21 Aug 10:36:51 10:37:41 11° 66° (ENE) 10:38:31 435.315
AO-73 21 Aug 10:41:01 10:44:22 22° 291° (WNW) 10:47:45 145.935
TIGRISAT 21 Aug 10:53:29 10:57:37 42° 261° (W) 11:01:41 435.000
RS-15 21 Aug 11:05:54 11:17:34 56° 111° (ESE) 11:29:25 29.354- 29.394
QB50P2 21 Aug 11:06:55 11:09:17 15° 65° (ENE) 11:11:39 145.880/145.840
EO-79 21 Aug 11:07:45 11:09:52 14° 65° (ENE) 11:11:59 145.935-145.965
EO-88 21 Aug 11:08:13 11:11:55 84° 103° (ESE) 11:15:35 145.990 - 145.960
ISS 21 Aug 11:08:29 11:11:36 40° 326° (NNW) 11:14:44 437.550
M-CUBED/EXP-1 PRIME 21 Aug 11:09:30 11:13:43 42° 67° (ENE) 11:18:07 437.505
nSIGHT-1 21 Aug 11:16:31 11:19:31 33° 329° (NNW) 11:22:31 .
Oscar 11 21 Aug 11:27:56 11:28:48 11° 297° (WNW) 11:29:40 .
Tancredo 1 21 Aug 11:31:44 11:32:34 11° 343° (NNW) 11:33:25 437.200
DUCHIFAT 1 21 Aug 11:36:00 11:39:14 22° 68° (ENE) 11:42:27 145.980
Max Valier Satellite 21 Aug 11:49:22 11:52:15 22° 290° (WNW) 11:55:08 145.860
PRISM 21 Aug 11:55:31 11:56:44 11° 269° (W) 11:57:58 437.425
AIST 2D 21 Aug 12:07:10 12:10:28 40° 262° (W) 12:13:48 435.315
DELFI C3 21 Aug 12:09:21 12:10:54 12° 295° (WNW) 12:12:26 145.870
NANOSAT C BR1 21 Aug 12:20:08 12:24:19 83° 74° (ENE) 12:28:31 145.865
POLYITAN 1 21 Aug 12:25:16 12:29:27 76° 258° (WSW) 12:33:40 437.675
ESTCUBE 1 21 Aug 12:29:16 12:33:46 57° 100° (E) 12:38:13 437.505/2401.250
VELOX 1 21 Aug 12:36:12 12:37:58 12° 91° (E) 12:39:44 145.980
LO-87 21 Aug 12:36:51 12:40:19 57° 285° (WNW) 12:43:47 145.935 - 145.965
SPROUT 21 Aug 12:39:34 12:42:21 17° 93° (E) 12:45:08 437.525
QB50P2 21 Aug 12:40:39 12:44:40 44° 261° (W) 12:48:43 145.880/145.840
EO-79 21 Aug 12:41:07 12:45:11 48° 260° (W) 12:49:16 145.935-145.965
M-CUBED/EXP-1 PRIME 21 Aug 12:45:02 12:48:15 19° 263° (W) 12:51:33 437.505
ISS 21 Aug 12:47:30 12:48:47 12° 346° (NNW) 12:50:04 437.550
JUGNU 21 Aug 12:50:08 12:51:54 11° 181° (S) 12:53:39 437.505
Gurwin Techsat 1B 21 Aug 12:55:29 12:58:45 17° 62° (ENE) 13:02:01 435.225
nSIGHT-1 21 Aug 12:55:48 12:56:41 11° 348° (NNW) 12:57:33 .
BUGSAT 1 21 Aug 13:08:42 13:12:47 70° 75° (ENE) 13:16:49 437.445
DUCHIFAT 1 21 Aug 13:11:08 13:14:44 28° 264° (W) 13:18:20 145.980
Oscar 19 21 Aug 13:16:00 13:20:43 38° 69° (ENE) 13:25:28 437.125/150
RS-15 21 Aug 13:18:37 13:30:20 48° 314° (NW) 13:42:10 29.354- 29.394
50 SAT 21 Aug 13:22:08 13:23:16 11° 93° (E) 13:24:24 437.505
BEESAT 3 21 Aug 13:30:09 13:33:02 19° 47° (NE) 13:35:52 437.485
AO-85 21 Aug 13:36:56 13:39:48 17° 47° (NE) 13:42:48 145.980
BEESAT 2 21 Aug 13:46:37 13:47:32 11° 41° (NE) 13:48:27 435.950
UKube-1 21 Aug 13:49:17 13:51:31 14° 93° (E) 13:53:44 .
AO-7 21 Aug 13:58:11 14:03:48 20° 52° (NE) 14:09:26 .
ESTCUBE 1 21 Aug 14:07:47 14:10:03 14° 296° (WNW) 14:12:19 437.505/2401.250
VELOX 1 21 Aug 14:10:25 14:14:44 55° 287° (WNW) 14:19:01 145.980
DX 1 21 Aug 14:10:29 14:14:33 38° 98° (E) 14:18:35 434.975-435.025
SPROUT 21 Aug 14:14:27 14:18:21 36° 288° (WNW) 14:22:15 437.525
Gurwin Techsat 1B 21 Aug 14:32:53 14:38:08 63° 259° (WSW) 14:43:26 435.225
ITAMSAT 1 21 Aug 14:38:33 14:41:45 17° 62° (ENE) 14:44:57 435.822/435.867
Tancredo 1 21 Aug 14:43:18 14:45:07 15° 23° (NNE) 14:46:56 437.200
SRMSAT 21 Aug 14:50:57 14:52:25 11° 176° (S) 14:53:54 437.500
50 SAT 21 Aug 14:53:00 14:56:03 32° 288° (WNW) 14:59:04 437.505
Oscar 19 21 Aug 14:55:59 15:00:06 24° 265° (W) 15:04:15 437.125/150
ITUPSAT 1 21 Aug 15:06:43 15:07:07 10° 90° (E) 15:07:32 437.325
BEESAT 3 21 Aug 15:07:02 15:10:45 39° 245° (WSW) 15:14:23 437.485
YUBILEINY 21 Aug 15:14:48 15:21:40 27° 82° (E) 15:28:31 435.215
AO-85 21 Aug 15:16:11 15:20:28 56° 242° (WSW) 15:25:04 145.980
BEESAT 2 21 Aug 15:21:49 15:25:54 90° 50° (NE) 15:29:54 435.950
UKube-1 21 Aug 15:23:37 15:27:46 47° 288° (WNW) 15:31:53 .
RS-15 21 Aug 15:38:23 15:47:04 21° 345° (NNW) 15:55:40 29.354- 29.394
MOZHAYETS 4 21 Aug 15:44:57 15:48:43 25° 95° (E) 15:52:30
AO-7 21 Aug 15:47:04 15:55:28 89° 63° (ENE) 16:03:53 .
DX 1 21 Aug 15:47:28 15:50:26 18° 294° (WNW) 15:53:23 434.975-435.025
ISS 21 Aug 16:01:17 16:03:57 22° 27° (NNE) 16:06:34 437.550
BEESAT 21 Aug 16:05:58 16:10:34 48° 100° (E) 16:15:10 436.000
nSIGHT-1 21 Aug 16:08:47 16:11:34 25° 28° (NNE) 16:14:20 .
ITAMSAT 1 21 Aug 16:15:33 16:20:41 60° 259° (WSW) 16:25:50 435.822/435.867
Tancredo 1 21 Aug 16:17:43 16:20:36 73° 221° (SW) 16:23:28 437.200
SRMSAT 21 Aug 16:40:00 16:40:39 10° 187° (S) 16:41:17 437.500
ITUPSAT 1 21 Aug 16:40:39 16:45:26 76° 285° (WNW) 16:50:12 437.325
YUBILEINY 21 Aug 17:09:04 17:17:46 63° 281° (W) 17:26:27 435.215
DOVE 4 21 Aug 17:11:11 17:16:01 38° 71° (ENE) 17:20:46 437.250
MOZHAYETS 4 21 Aug 17:21:49 17:25:51 30° 290° (WNW) 17:29:52
LilacSat-2 21 Aug 17:27:54 17:29:54 14° 67° (ENE) 17:31:56 437.200
KKS-1 21 Aug 17:28:01 17:31:41 25° 96° (E) 17:35:20 437.445
XW-2D 21 Aug 17:31:04 17:33:10 15° 67° (ENE) 17:35:19 145.860 - 145.880
NUDT-PHONESAT 21 Aug 17:35:36 17:36:41 11° 65° (ENE) 17:37:45 437.300
ISS 21 Aug 17:37:24 17:40:33 46° 223° (SW) 17:43:41 437.550
XW-2B 21 Aug 17:41:31 17:44:11 19° 69° (ENE) 17:46:51 145.730 - 145.750
CUBESAT XI-V 21 Aug 17:42:56 17:47:41 89° 284° (WNW) 17:52:23 437.345
AO-7 21 Aug 17:44:03 17:49:08 17° 269° (W) 17:54:15 .
BEESAT 21 Aug 17:44:49 17:47:57 18° 295° (WNW) 17:51:04 436.000
nSIGHT-1 21 Aug 17:45:00 17:48:00 35° 225° (SW) 17:50:58 .
RS-15 21 Aug 17:56:42 18:05:54 23° 22° (NNE) 18:14:47 29.354- 29.394
XW-2C 21 Aug 17:59:51 18:03:11 31° 72° (ENE) 18:06:33 145.795 - 145.815
STARS 21 Aug 18:04:30 18:08:08 25° 96° (E) 18:11:44 437.465
XW-2F 21 Aug 18:11:10 18:14:40 41° 74° (ENE) 18:18:14 145.980 - 146.000
CUTE-I 21 Aug 18:29:26 18:34:45 68° 74° (ENE) 18:40:05 437.470
HO-68 21 Aug 18:30:20 18:36:25 31° 62° (ENE) 18:42:28 435.675
KAITUO 1B 21 Aug 18:34:51 18:38:31 67° 76° (ENE) 18:42:14 145.475/437.950
O/OREOS (USA 219) 21 Aug 18:40:48 18:43:27 15° 56° (NE) 18:46:06 437.305
DOVE 4 21 Aug 18:49:22 18:53:41 26° 266° (W) 18:57:59 437.250
CUTE 1.7 + AOD 2 21 Aug 18:50:10 18:53:31 23° 69° (ENE) 18:56:53 437.475
LilacSat-2 21 Aug 19:00:20 19:03:50 37° 262° (W) 19:07:22 437.200
XW-2D 21 Aug 19:03:36 19:07:02 34° 262° (W) 19:10:31 145.860 - 145.880
KKS-1 21 Aug 19:04:25 19:08:10 27° 291° (WNW) 19:11:53 437.445
NUDT-PHONESAT 21 Aug 19:06:36 19:10:07 44° 261° (W) 19:13:40 437.300
CUBEBUG 2 21 Aug 19:09:43 19:12:49 20° 68° (ENE) 19:15:53 437.445
YUBILEINY 21 Aug 19:14:39 19:16:33 11° 303° (WNW) 19:18:27 435.215
XW-2B 21 Aug 19:14:59 19:18:10 26° 264° (W) 19:21:23 145.730 - 145.750
XW-2C 21 Aug 19:35:12 19:37:27 15° 267° (W) 19:39:42 145.795 - 145.815
SEEDS 21 Aug 19:35:38 19:39:39 46° 73° (ENE) 19:43:43 437.485
ZACube-1 21 Aug 19:39:59 19:41:52 13° 65° (ENE) 19:43:47 437.345
STARS 21 Aug 19:40:45 19:44:23 26° 291° (WNW) 19:48:01 437.465
XW-2F 21 Aug 19:47:41 19:49:00 12° 269° (W) 19:50:20 145.980 - 146.000
XW-2A 21 Aug 19:55:34 19:58:51 67° 77° (ENE) 20:02:11 145.665 - 145.685
AO-73 21 Aug 19:59:30 20:02:25 19° 68° (ENE) 20:05:21 145.935
RS-15 21 Aug 20:09:46 20:21:43 60° 52° (NE) 20:32:59 29.354- 29.394
STRAND 1 21 Aug 20:12:26 20:17:15 41° 99° (E) 20:22:03 437.568
CUTE-I 21 Aug 20:12:30 20:15:14 14° 269° (W) 20:18:00 437.470
HO-68 21 Aug 20:16:56 20:23:48 50° 260° (W) 20:30:43 435.675
AAUSAT CUBESAT 2 21 Aug 20:18:27 20:22:34 65° 76° (ENE) 20:26:43 437.432
O/OREOS (USA 219) 21 Aug 20:18:45 20:23:12 55° 253° (WSW) 20:27:39 437.305
CUTE 1.7 + AOD 2 21 Aug 20:25:35 20:29:12 27° 264° (W) 20:32:51 437.475
UWE-3 21 Aug 20:35:46 20:39:58 73° 259° (W) 20:44:07 435.000/436.395/437.385
Oscar 11 21 Aug 20:42:13 20:46:17 44° 73° (ENE) 20:50:24 .
CUBEBUG 2 21 Aug 20:45:24 20:49:14 31° 263° (W) 20:53:00 437.445
SEEDS 21 Aug 21:13:31 21:15:34 13° 269° (W) 21:17:37 437.485
ZACube-1 21 Aug 21:13:42 21:17:43 49° 260° (W) 21:21:45 437.345
DELFI C3 21 Aug 21:17:00 21:20:12 24° 70° (ENE) 21:23:27 145.870
AO-73 21 Aug 21:34:45 21:38:26 31° 263° (W) 21:42:08 145.935
EO-88 21 Aug 21:44:48 21:47:55 27° 71° (ENE) 21:51:02 145.990 - 145.960
FO-29 21 Aug 21:48:37 21:53:11 27° 94° (E) 21:57:32 435.910
STRAND 1 21 Aug 21:52:15 21:56:08 22° 295° (WNW) 22:00:01 437.568
UNISAT 6 21 Aug 22:11:43 22:14:43 18° 94° (E) 22:17:45 437.425
Oscar 11 21 Aug 22:20:13 22:22:38 15° 268° (W) 22:25:03 .
SO-50 21 Aug 22:21:11 22:24:13 18° 110° (ESE) 22:27:14 436.795
RS-15 21 Aug 22:23:01 22:33:35 40° 254° (WSW) 22:43:41 29.354- 29.394
Max Valier Satellite 21 Aug 22:25:53 22:29:28 60° 260° (W) 22:33:06 145.860
PCSat 21 Aug 22:45:05 22:50:24 59° 113° (ESE) 22:55:44 145.827
TIGRISAT 21 Aug 22:45:40 22:49:45 40° 99° (E) 22:53:52 435.000
DELFI C3 21 Aug 22:51:38 22:54:52 23° 265° (W) 22:58:07 145.870
LO-87 21 Aug 23:11:16 23:14:38 40° 74° (ENE) 23:18:02 145.935 - 145.965
EO-88 21 Aug 23:19:15 23:21:35 16° 266° (W) 23:23:57 145.990 - 145.960
ESTCUBE 1 21 Aug 23:27:18 23:31:34 44° 72° (ENE) 23:35:53 437.505/2401.250
SPROUT 21 Aug 23:32:59 23:34:35 12° 64° (ENE) 23:36:11 437.525
FO-29 21 Aug 23:33:27 23:38:22 33° 293° (WNW) 23:42:59 435.910
VELOX 1 21 Aug 23:33:40 23:34:25 10° 62° (ENE) 23:35:09 145.980
AIST 2D 21 Aug 23:34:12 23:36:16 15° 93° (E) 23:38:21 435.315
PRISM 21 Aug 23:34:33 23:38:41 75° 286° (WNW) 23:42:46 437.425
UNISAT 6 21 Aug 23:47:33 23:51:31 36° 288° (WNW) 23:55:32 437.425
SO-50 21 Aug 23:59:58 00:04:18 45° 306° (NW) 00:08:39 436.795
NANOSAT C BR1 22 Aug 00:06:59 00:09:15 14° 92° (E) 00:11:31 145.865
POLYITAN 1 22 Aug 00:12:03 00:15:01 18° 94° (E) 00:17:58 437.675
TIGRISAT 22 Aug 00:23:18 00:26:07 17° 293° (WNW) 00:28:58 435.000
M-CUBED/EXP-1 PRIME 22 Aug 00:23:56 00:27:52 34° 101° (ESE) 00:31:30 437.505
QB50P2 22 Aug 00:26:39 00:30:22 30° 97° (E) 00:34:04 145.880/145.840
EO-79 22 Aug 00:27:04 00:30:40 27° 96° (E) 00:34:15 145.935-145.965
PCSat 22 Aug 00:30:07 00:34:11 21° 312° (NW) 00:38:16 145.827
NO-84 22 Aug 00:42:02 00:44:28 23° 129° (SE) 00:46:48 435.350 FM
UKube-1 22 Aug 00:43:52 00:45:03 11° 62° (ENE) 00:46:15 .
LO-87 22 Aug 00:47:25 00:48:15 11° 268° (W) 00:49:05 145.935 - 145.965
BUGSAT 1 22 Aug 00:54:36 00:54:57 10° 91° (E) 00:55:18 437.445
DUCHIFAT 1 22 Aug 00:55:29 00:59:31 46° 99° (E) 01:03:32 145.980
DX 1 22 Aug 01:04:45 01:08:31 29° 69° (ENE) 01:12:18 434.975-435.025
VELOX 1 22 Aug 01:05:45 01:10:12 76° 258° (WSW) 01:14:40 145.980
SPROUT 22 Aug 01:05:46 01:09:58 59° 259° (W) 01:14:10 437.525
ESTCUBE 1 22 Aug 01:05:47 01:08:34 16° 268° (W) 01:11:21 437.505/2401.250
AIST 2D 22 Aug 01:06:24 01:09:30 28° 288° (WNW) 01:12:36 435.315
50 SAT 22 Aug 01:21:56 01:25:17 59° 75° (ENE) 01:28:40 437.505
YUBILEINY 22 Aug 01:28:40 01:30:35 11° 57° (ENE) 01:32:29 435.215
Oscar 19 22 Aug 01:30:07 01:32:54 14° 91° (E) 01:35:41 437.125/150
NANOSAT C BR1 22 Aug 01:41:10 01:45:09 43° 287° (WNW) 01:49:07 145.865
POLYITAN 1 22 Aug 01:47:04 01:50:51 33° 289° (WNW) 01:54:39 437.675
M-CUBED/EXP-1 PRIME 22 Aug 01:58:49 02:01:59 20° 299° (WNW) 02:05:00 437.505
QB50P2 22 Aug 02:02:47 02:05:58 21° 292° (WNW) 02:09:08 145.880/145.840
EO-79 22 Aug 02:02:58 02:06:16 23° 291° (WNW) 02:09:35 145.935-145.965
ITUPSAT 1 22 Aug 02:11:46 02:13:27 12° 61° (ENE) 02:15:08 437.325
UKube-1 22 Aug 02:16:11 02:20:29 67° 258° (WSW) 02:24:48 .
NO-84 22 Aug 02:19:24 02:21:45 22° 324° (NW) 02:24:05 435.350 FM
BUGSAT 1 22 Aug 02:26:41 02:30:37 55° 286° (WNW) 02:34:33 437.445
DUCHIFAT 1 22 Aug 02:32:32 02:34:46 14° 295° (WNW) 02:37:00 145.980
DX 1 22 Aug 02:41:09 02:44:39 23° 264° (W) 02:48:11 434.975-435.025
MOZHAYETS 4 22 Aug 02:45:56 02:49:20 21° 67° (ENE) 02:52:43
Gurwin Techsat 1B 22 Aug 02:50:18 02:55:33 58° 101° (E) 03:00:46 435.225
Oscar 19 22 Aug 03:07:28 03:12:38 63° 286° (WNW) 03:17:45 437.125/150
BEESAT 22 Aug 03:10:55 03:15:28 48° 72° (ENE) 03:20:03 436.000
YUBILEINY 22 Aug 03:20:43 03:29:22 63° 79° (E) 03:37:56 435.215
ITUPSAT 1 22 Aug 03:45:52 03:50:37 75° 257° (WSW) 03:55:24 437.325
AO-7 22 Aug 03:50:49 03:58:02 32° 97° (E) 04:05:12 .
MOZHAYETS 4 22 Aug 04:22:04 04:26:13 35° 263° (W) 04:30:25
KKS-1 22 Aug 04:25:04 04:28:25 21° 67° (ENE) 04:31:47 437.445
ITAMSAT 1 22 Aug 04:29:35 04:34:38 52° 100° (E) 04:39:40 435.822/435.867
Gurwin Techsat 1B 22 Aug 04:31:31 04:34:59 18° 297° (WNW) 04:38:28 435.225
CUBESAT XI-V 22 Aug 04:44:31 04:49:09 76° 76° (ENE) 04:53:51 437.345
BEESAT 22 Aug 04:50:32 04:53:29 16° 267° (W) 04:56:26 436.000
BEESAT 3 22 Aug 04:54:51 04:58:37 42° 116° (ESE) 05:02:27 437.485
STARS 22 Aug 05:00:09 05:03:24 21° 67° (ENE) 05:06:38 437.465
BEESAT 2 22 Aug 05:12:28 05:15:25 20° 111° (ESE) 05:18:25 435.950
YUBILEINY 22 Aug 05:18:42 05:25:25 26° 278° (W) 05:32:08 435.215
AO-85 22 Aug 05:29:40 05:33:34 61° 119° (ESE) 05:37:26 145.980
AO-7 22 Aug 05:43:01 05:51:04 55° 294° (WNW) 05:59:02 .
KKS-1 22 Aug 06:00:40 06:04:44 34° 262° (W) 06:08:49 437.445
ITAMSAT 1 22 Aug 06:10:09 06:13:40 19° 297° (WNW) 06:17:11 435.822/435.867
BEESAT 3 22 Aug 06:33:33 06:36:23 18° 313° (NW) 06:39:14 437.485
LilacSat-2 22 Aug 06:34:46 06:37:55 23° 95° (E) 06:41:03 437.200
STARS 22 Aug 06:35:29 06:39:30 34° 262° (W) 06:43:31 437.465
XW-2D 22 Aug 06:37:15 06:40:25 24° 96° (E) 06:43:34 145.860 - 145.880
NUDT-PHONESAT 22 Aug 06:38:41 06:41:13 17° 94° (E) 06:43:44 437.300
XW-2B 22 Aug 06:48:06 06:51:34 31° 97° (E) 06:55:01 145.730 - 145.750
CUTE-I 22 Aug 06:48:11 06:52:47 29° 96° (E) 06:57:21 437.470
DOVE 4 22 Aug 06:48:58 06:53:29 74° 284° (WNW) 06:57:43 437.250
BEESAT 2 22 Aug 06:49:19 06:52:57 33° 308° (NW) 06:56:38 435.950
SO-50 22 Aug 06:52:58 06:55:35 15° 43° (NE) 06:58:11 436.795
XW-2C 22 Aug 07:07:00 07:10:48 57° 100° (E) 07:14:36 145.795 - 145.815
AO-85 22 Aug 07:12:30 07:14:20 13° 316° (NW) 07:16:11 145.980
NO-84 22 Aug 07:16:27 07:17:48 12° 29° (NNE) 07:19:12 435.350 FM
